Weather History for Youngstown, OH

Change the Weather History Date:

Tuesday, November 23, 2010

  Actual Average Record
Temperature  
Mean Temperature 47 °F 39 °F  
Max Temperature 61 °F 46 °F 74 °F (1931)
Min Temperature 33 °F 32 °F 4 °F (1971)
Degree Days  
Heating Degree Days 18 26  
Month to date heating degree days 521 512  
Since 1 July heating degree days 1072 1133  
Cooling Degree Days 0 0  
Month to date cooling degree days 0 0  
Year to date cooling degree days 793 544  
Moisture  
Dew Point 39 °F    
Average Humidity 62    
Maximum Humidity 86    
Minimum Humidity 38    
Precipitation  
Precipitation 0.10 in 0.11 in 1.24 in (1961)
Month to date precipitation 1.44 2.43  
Year to date precipitation 31.98 35.17  
Snow  
Snow 0.00 in 0.20 in - ()
Month to date snowfall T 2.1  
Since 1 July snowfall T 2.9  
Since 1 September snowfall T 2.9  
Snow Depth 0.00 in    
Sea Level Pressure  
Sea Level Pressure 29.97 in    
Wind  
Wind Speed 14 mph (WSW)    
Max Wind Speed 24 mph    
Max Gust Speed 30 mph    
Visibility 10 miles    
Events Rain , Thunderstorm    
T = Trace of Precipitation, MM = Missing Value Source: NWS Daily Summary

Daily Weather History Graph

Daily Weather History Graph

Search for Another Location

Airport:

Trip Planner

Search our weather history database for the weather conditions in past years. The results will help you decide how hot, cold, wet, or windy it might be!

Date:

Astronomy

Nov. 23, 2010 Rise Set
Actual Time 7:20 AM EST 4:57 PM EST
Civil Twilight 6:49 AM EST 5:27 PM EST
Nautical Twilight 6:16 AM EST 6:01 PM EST
Astronomical Twilight 5:43 AM EST 6:34 PM EST
Moon 6:36 PM EST (11/23) 9:17 AM EST (11/23)
Length of Visible Light 10h 38m
Length of Day
9h 37m
Waning Gibbous, 96% of the Moon is Illuminated
Nov 23
Waning Gibbous
Nov 28
Last Quarter
Dec 5
New
Dec 13
First Quarter
Dec 21
Full

Hourly Weather History & Observations

Time (EST) Temp. Windchill Dew Point Humidity Pressure Visibility Wind Dir Wind Speed Gust Speed Precip Events Conditions
12:51 AM 61.0 °F - 46.9 °F 60% 29.86 in 10.0 mi South 12.7 mph 18.4 mph N/A   Overcast
1:51 AM 60.1 °F - 46.9 °F 62% 29.82 in 10.0 mi South 11.5 mph 23.0 mph N/A   Overcast
2:51 AM 60.1 °F - 46.9 °F 62% 29.80 in 10.0 mi South 13.8 mph 20.7 mph N/A   Overcast
2:54 AM 60.8 °F - 46.4 °F 59% 29.80 in 10.0 mi South 13.8 mph 20.7 mph N/A Thunderstorm Thunderstorm
3:37 AM 59.0 °F - 53.6 °F 82% 29.82 in 10.0 mi SSW 12.7 mph 20.7 mph 0.05 in   Overcast
3:51 AM 57.9 °F - 53.1 °F 84% 29.82 in 9.0 mi SW 11.5 mph - 0.05 in Rain Light Rain
4:51 AM 57.0 °F - 52.0 °F 83% 29.84 in 10.0 mi SW 11.5 mph 20.7 mph 0.00 in   Overcast
5:51 AM 57.0 °F - 52.0 °F 83% 29.85 in 10.0 mi SSW 10.4 mph - 0.01 in   Overcast
6:51 AM 55.9 °F - 52.0 °F 87% 29.85 in 10.0 mi SSW 13.8 mph 21.9 mph 0.01 in Rain Light Rain
7:51 AM 55.9 °F - 51.1 °F 84% 29.86 in 10.0 mi SW 9.2 mph - 0.01 in Rain Light Rain
8:51 AM 55.9 °F - 52.0 °F 87% 29.87 in 10.0 mi SW 13.8 mph 18.4 mph 0.00 in   Overcast
9:23 AM 55.4 °F - 51.8 °F 88% 29.88 in 10.0 mi WSW 12.7 mph - N/A   Overcast
9:51 AM 57.0 °F - 52.0 °F 83% 29.89 in 10.0 mi SW 13.8 mph - 0.01 in   Overcast
10:34 AM 57.2 °F - 44.6 °F 63% 29.92 in 10.0 mi WSW 16.1 mph 29.9 mph N/A   Overcast
10:51 AM 55.9 °F - 41.0 °F 57% 29.92 in 10.0 mi West 15.0 mph 24.2 mph N/A   Mostly Cloudy
11:51 AM 54.0 °F - 35.1 °F 49% 29.94 in 10.0 mi West 19.6 mph 24.2 mph N/A   Scattered Clouds
12:51 PM 55.0 °F - 33.1 °F 43% 29.95 in 10.0 mi WSW 12.7 mph 20.7 mph N/A   Scattered Clouds
1:51 PM 53.1 °F - 28.9 °F 40% 29.96 in 10.0 mi West 16.1 mph 26.5 mph N/A   Scattered Clouds
2:51 PM 52.0 °F - 28.0 °F 40% 29.97 in 10.0 mi West 12.7 mph 23.0 mph N/A   Scattered Clouds
3:51 PM 48.9 °F - 25.0 °F 39% 30.01 in 10.0 mi WNW 13.8 mph 23.0 mph N/A   Partly Cloudy
4:51 PM 45.0 °F 39.3 °F 28.0 °F 52% 30.05 in 10.0 mi WNW 11.5 mph - N/A   Partly Cloudy
5:51 PM 39.9 °F 31.8 °F 32.0 °F 73% 30.10 in 10.0 mi WNW 15.0 mph 20.7 mph N/A   Scattered Clouds
6:51 PM 39.9 °F 31.4 °F 28.9 °F 65% 30.13 in 10.0 mi WNW 16.1 mph 24.2 mph N/A   Overcast
7:51 PM 39.0 °F 31.8 °F 28.0 °F 65% 30.14 in 10.0 mi WNW 11.5 mph 20.7 mph N/A   Overcast
8:51 PM 37.9 °F 27.9 °F 25.0 °F 60% 30.19 in 10.0 mi WNW 19.6 mph 24.2 mph N/A   Overcast
9:51 PM 36.0 °F 25.0 °F 26.1 °F 67% 30.23 in 10.0 mi NW 20.7 mph 25.3 mph N/A   Overcast
10:51 PM 34.0 °F 24.6 °F 24.1 °F 67% 30.26 in 10.0 mi NW 13.8 mph 24.2 mph N/A   Overcast
11:40 PM 33.8 °F 24.8 °F 24.8 °F 70% 30.24 in 10.0 mi North 12.7 mph - N/A   Overcast
11:51 PM 33.1 °F 25.5 °F 26.1 °F 75% 30.27 in 10.0 mi NNW 9.2 mph - N/A   Overcast